Regional Weather Roundup
Issued by NWS

Home | Current Version | Previous Version | Text Only | Print | Product List | Glossary Off
Versions: 1 2 3 4 5 6 7 8 9 10 11 12 13 14 15 16 17 18 19 20 21 22 23 24 25 26 27 28 29 30 31 32 33 34 35 36 37 38 39 40 41 42 43 44 45 46 47 48 49 50

000
ASUS43 KMKX 270710
RWRWI

WISCONSIN REGIONAL WEATHER ROUNDUP
NATIONAL WEATHER SERVICE MILWAUKEE/SULLIVAN WI
100 AM CST TUE JAN 27 2015

NOTE: "FAIR" INDICATES FEW OR NO CLOUDS BELOW 12,000 FEET WITH NO
SIGNIFICANT WEATHER AND/OR OBSTRUCTIONS TO VISIBILITY.

WIZ001-002-006>008-014>016-023>028-270800-
NORTHWEST WISCONSIN

CITY           SKY/WX    TMP DP  RH WIND       PRES   REMARKS
SUPERIOR ARPT  CLOUDY    29  24  81 N6        30.02R WCI  23
ASHLAND        CLOUDY    25  23  92 W3        30.00R
HAYWARD        CLOUDY    27  23  85 N5        29.98R WCI  22
SIREN          CLOUDY    30  24  77 N10       30.01R WCI  21
CUMBERLAND     CLOUDY    28  23  80 N16       29.98R WCI  17
RICE LAKE      CLOUDY    30  26  84 N6        30.00R WCI  24
CHETEK         CLOUDY    29  26  86 N6        29.99R WCI  23
LADYSMITH      CLOUDY    25  24  93 N5        29.99R WCI  20
EAU CLAIRE     CLOUDY    28  24  85 CALM      29.99R
MENOMONIE      CLOUDY    32  29  91 N6        29.99R FOG     WCI  26
NEW RICHMOND   CLOUDY    32  26  76 N7        30.00R WCI  26
OSCEOLA        CLOUDY    33  26  74 N5        30.03R WCI  29
$$

WIZ003>005-009-010-017-018-270800-
NORTH CENTRAL WISCONSIN

CITY           SKY/WX    TMP DP  RH WIND       PRES   REMARKS
MANITOWISH WTR CLOUDY    19  17  95 CALM      29.94R
ARBOR VITAE    CLOUDY    22  19  89 CALM      29.94R
WOODRUFF       CLOUDY    22  19  89 CALM      29.94R
RHINELANDER    CLOUDY    19  17  92 N3        29.93R
EAGLE RIVER    CLOUDY    20  16  85 CALM      29.94R
LAND O LAKES   CLOUDY    20  18  91 CALM      29.94R
PHILLIPS       CLOUDY    20  18  93 CALM      29.95R
TOMAHAWK       CLOUDY    19  18  94 CALM      29.95R
MEDFORD        CLOUDY    20  19  93 CALM      29.94R FOG
MERRILL        CLOUDY    21  20  96 CALM      29.95R
$$

WIZ029-030-035-036-043>047-270800-
CENTRAL WISCONSIN

CITY           SKY/WX    TMP DP  RH WIND       PRES   REMARKS
WAUSAU         CLOUDY    22  19  89 CALM      29.93R
MOSINEE        CLOUDY    21  21 100 CALM      29.95R
MARSHFIELD     CLOUDY    23  20  88 N3        29.94R FOG
STEVENS POINT  CLOUDY    20  19  95 CALM      29.95R
WAUPACA        PTCLDY    25  22  89 N3        29.97R FOG
WAUTOMA        CLOUDY    24  23  96 N5        29.96R WCI  18
WISC RAPIDS    CLOUDY    23  19  85 NE3       29.96R
CAMP DOUGLAS   CLOUDY    25  25 100 N5        29.96R WCI  19
$$

WIZ011>013-019>022-031-037>040-048>050-270800-
NORTHEAST WISCONSIN

CITY           SKY/WX    TMP DP  RH WIND       PRES   REMARKS
ANTIGO         CLOUDY    20  19  96 E5        29.93R WCI  14
SHAWANO        CLOUDY    25  23  89 E5        29.98R WCI  20
OCONTO         CLOUDY    22  22  97 CALM      30.01R
STURGEON BAY   CLOUDY    21  18  86 SE5       30.02R WCI  15
GREEN BAY      CLOUDY    24  20  84 E8        29.98R WCI  15
MANITOWOC      MIX PCPN  25  22  88 SE10      29.99R WCI  15
APPLETON       CLOUDY    25  23  93 NE6       29.95R WCI  18
CLINTONVILLE   CLOUDY    25  23  93 CALM      29.97R
OSHKOSH        CLOUDY    24  20  84 E3        29.95R
$$

WIZ032>034-041-042-053>061-270800-
SOUTHWEST WISCONSIN

CITY           SKY/WX    TMP DP  RH WIND       PRES   REMARKS
LA CROSSE      CLOUDY    30  27  88 N6        29.99R FOG     WCI  24
SPARTA         CLOUDY    27  26  99 N5        29.98R FOG     WCI  21
VIROQUA        CLOUDY    29  29 100 NW8       29.94R WCI  21
BOSCOBEL       CLOUDY    27  25  92 CALM      29.96R FOG
PRAIRIE DU CHI CLOUDY    30  27  90 CALM      29.97R FOG
PLATTEVILLE    CLOUDY    27  26  96 W5        29.93R WCI  21
$$

WIZ056-057-062-063-064-067-068-270800-
SOUTH CENTRAL WISCONSIN

CITY           SKY/WX    TMP DP  RH WIND       PRES   REMARKS
REEDSBURG      CLOUDY    24  23  97 NW3       29.94R FOG
BARABOO/DELLS  CLOUDY    23  22  93 CALM      29.93R FOG
LONE ROCK      CLOUDY    25  23  92 CALM      29.95R
MINERAL POINT  CLOUDY    28  27  93 CALM      29.92R FOG
MADISON        CLOUDY    25  22  88 CALM      29.93R FOG
MIDDLETON      CLOUDY    26  25  95 CALM      29.93R
WATERTOWN      CLOUDY    24  24 100 CALM      29.93R FOG
MONROE         FOG       27  27 100 NW5       29.91R VSB 1/2 WCI  21
JANESVILLE     CLOUDY    28  27  93 CALM      29.92R FOG
$$

WIZ051-052-058>065-066-070>072-270800-
SOUTHEAST WISCONSIN

CITY           SKY/WX    TMP DP  RH WIND       PRES   REMARKS
MILWAUKEE      LGT SNOW  26  22  84 NW3       29.94R
WAUKESHA       CLOUDY    23  21  93 CALM      29.93S FOG
MILWAUKEE/TIMM CLOUDY    27  23  86 CALM      29.95R FOG
RACINE         CLOUDY    26  23  88 CALM      29.95R
BURLINGTON     NOT AVBL
KENOSHA        CLOUDY    26  24  92 CALM      29.93R FOG
FOND DU LAC    CLOUDY    24  20  84 NE5       29.95R WCI  18
SHEBOYGAN      CLOUDY    26  19  74 E8        29.96R WCI  18
WEST BEND      CLOUDY    25  21  86 NE5       29.94R WCI  19
JUNEAU         CLOUDY    24  22  94 CALM      29.94R FOG
$$

LSZ147-162-270800-
LAKE SUPERIOR

STATION/POSITION TIME  TEMP    WIND        PRES    WAVE
                       AIR SEA DIR/SP/G            HT/PER
                 (UTC) (F)     (DEG/KT/KT) (MB)    (FT/S)
DEVILS ISLAND    0700   29     350/ 12/ 13 1017.0R
PORT WING        0640   29     350/ 11/ 13 1016.6R
SAXON HARBOR     0600   25        CALM     1015.2R
$$

LMZ867-665-643>646-270800-
LAKE MICHIGAN

STATION/POSITION TIME  TEMP    WIND        PRES    WAVE
                       AIR SEA DIR/SP/G            HT/PER
                 (UTC) (F)     (DEG/KT/KT) (MB)    (FT/S)
NORTHPORT PIER   0622   25     130/  9/ 11 1016.6R
SISTER BAY       0643   23        CALM       N/A
KEWAUNEE LAKESHO 0600   24     150/  7/ 12 1014.5R
SHEBOYGAN LAKESH 0700   26     110/ 10/ 12 1016.0R
PORT WASHINGTON  0630   26        CALM     1014.9R
KENOSHA   LAKESH 0700   27     280/  2/  3 1013.9R
$$

TC  - TEMPERATURE IN CELSIUS
VSB - VISIBILITY IN STATUTE MILES
WCI - WIND CHILL INDEX
HX  - HEAT INDEX




USA.gov is the U.S. government's official web portal to all federal, state and local government web resources and services.